Guasti, CA

3:37 AM PST on December 07, 2016 (GMT -0800)
Ontario International

Weather History for KONT - January, 2014

Change the Weather History Date:

Thursday, January 16, 2014

  Actual Average Record
Temperature  
Mean Temperature 69 °F 55 °F  
Max Temperature 86 °F 65 °F 86 °F (2014)
Min Temperature 51 °F 44 °F 34 °F (2007)
Degree Days  
Heating Degree Days 0 11  
Month to date heating degree days 82 176  
Since 1 July heating degree days 504 736  
Cooling Degree Days 4 0  
Month to date cooling degree days 17 0  
Year to date cooling degree days 17 0  
Growing Degree Days 20 (Base 50)    
Moisture  
Dew Point 9 °F    
Average Humidity 14    
Maximum Humidity 24    
Minimum Humidity 3    
Precipitation  
Precipitation 0.00 in 0.11 in 3.02 in (1952)
Month to date precipitation 0.00 2.00  
Year to date precipitation 0.00 2.00  
Since 1 July precipitation 0.92  
Snow  
Snow 0.00 in - - ()
Month to date snowfall 0.0  
Year to date snowfall 0.0  
Snow Depth 0.00 in    
Sea Level Pressure  
Sea Level Pressure 30.07 in    
Wind  
Wind Speed 9 mph (NNE)    
Max Wind Speed 25 mph    
Max Gust Speed 35 mph    
Visibility 10 miles    
Events      
T = Trace of Precipitation, MM = Missing Value Source: NWS Daily Summary

Daily Weather History Graph

Daily Weather History Graph

Search for Another Location

Airport or City:

Trip Planner

Search our weather history database for the weather conditions in past years. The results will help you decide how hot, cold, wet, or windy it might be!

Date:

Astronomy

Jan. 16, 2014 Rise Set
Actual Time 6:55 AM PST 5:05 PM PST
Civil Twilight 6:28 AM PST 5:32 PM PST
Nautical Twilight 5:57 AM PST 6:03 PM PST
Astronomical Twilight 5:27 AM PST 6:33 PM PST
Moon 5:56 PM PST (1/16) 6:55 AM PST (1/16)
Length of Visible Light 11h 04m
Length of Day
10h 09m
Full, 100% of the Moon is Illuminated
Jan 16
Full
Jan 23
Last Quarter
Jan 30
New
Feb 6
First Quarter
Feb 14
Full

Hourly Weather History & Observations

Time (PST) Temp. Dew Point Humidity Pressure Visibility Wind Dir Wind Speed Gust Speed Precip Events Conditions
12:53 AM 57.0 °F 21.0 °F 25% 30.09 in 10.0 mi Calm Calm - N/A   Clear
1:53 AM 55.0 °F 19.0 °F 24% 30.10 in 10.0 mi Calm Calm - N/A   Clear
2:53 AM 61.0 °F 14.0 °F 16% 30.08 in 10.0 mi Variable 3.5 mph - N/A   Clear
3:53 AM 57.9 °F 17.1 °F 20% 30.08 in 10.0 mi Calm Calm - N/A   Clear
4:53 AM 60.1 °F 14.0 °F 16% 30.08 in 10.0 mi WSW 4.6 mph - N/A   Clear
5:53 AM 55.9 °F 15.1 °F 20% 30.10 in 10.0 mi Calm Calm - N/A   Clear
6:53 AM 61.0 °F 12.0 °F 15% 30.10 in 10.0 mi North 6.9 mph - N/A   Partly Cloudy
7:53 AM 66.2 °F 12.2 °F 12% 30.11 in 10.0 mi Variable 4.6 mph - N/A   Partly Cloudy
8:53 AM 75.9 °F 8.1 °F 7% 30.12 in 10.0 mi North 12.7 mph 21.9 mph N/A   Partly Cloudy
9:53 AM 82.0 °F -0.0 °F 4% 30.10 in 10.0 mi ENE 18.4 mph 27.6 mph N/A   Partly Cloudy
10:53 AM 82.0 °F 1.0 °F 4% 30.09 in 10.0 mi NE 16.1 mph 27.6 mph N/A   Widespread Dust
11:53 AM 82.9 °F -0.9 °F 4% 30.06 in 10.0 mi NE 18.4 mph 31.1 mph N/A   Partly Cloudy
12:53 PM 84.0 °F -2.0 °F 4% 30.04 in 10.0 mi NE 20.7 mph 28.8 mph N/A   Partly Cloudy
1:53 PM 86.0 °F 3.0 °F 4% 30.03 in 10.0 mi North 9.2 mph - N/A   Clear
2:53 PM 84.9 °F -2.9 °F 4% 30.02 in 10.0 mi NE 15.0 mph 25.3 mph N/A   Clear
3:53 PM 84.0 °F 1.0 °F 4% 30.02 in 10.0 mi NE 16.1 mph 23.0 mph N/A   Clear
4:53 PM 80.1 °F 3.0 °F 5% 30.03 in 10.0 mi ENE 10.4 mph - N/A   Clear
5:53 PM 77.0 °F 3.2 °F 6% 30.05 in 10.0 mi Calm Calm - N/A   Partly Cloudy
6:53 PM 71.6 °F 8.6 °F 9% 30.05 in 10.0 mi NE 8.1 mph - N/A   Partly Cloudy
7:53 PM 70.0 °F 10.0 °F 10% 30.06 in 10.0 mi NW 3.5 mph - N/A   Clear
8:53 PM 63.0 °F 18.0 °F 18% 30.07 in 10.0 mi Calm Calm - N/A   Clear
9:53 PM 64.9 °F 16.0 °F 15% 30.06 in 9.0 mi North 4.6 mph - N/A   Clear
10:53 PM 73.9 °F 3.9 °F 7% 30.05 in 10.0 mi NE 9.2 mph 23.0 mph N/A   Clear
11:53 PM 66.9 °F 10.9 °F 11% 30.05 in 10.0 mi Variable 6.9 mph - N/A   Clear